Tracking 27380 objects as of 6-Jun-2023
HD Live streaming from Space Station
objects crossing your sky now

OPS 4682 DEB

Track OPS 4682 DEB now!
10-day predictions


NORAD ID: 19593
Int'l Code: 1965-027AW
Perigee: 1,269.1 km
Apogee: 1,312.3 km
Inclination: 90.2 °
Period: 111.2 minutes
Semi major axis: 7661 km
RCS: 0.0119 m2 (small)
Launch date: April 3, 1965
Source: United States (US)
Launch site: AIR FORCE WESTERN TEST RANGE (AFWTR)

Note: This is SATELLITE DEBRIS
Your satellite tracking list
Your tracking list is empty




NASA's NSSDC Master Catalog

Two Line Element Set (TLE):
1 19593U 65027AW  23156.50014660  .00000392  00000-0  13770-2 0  9990
2 19593  90.2466 342.0496 0028161 142.1073 246.7750 12.94536306658672
Source of the keplerian elements: AFSPC